Regional Weather Roundup
Issued by NWS

Home | Current Version | Previous Version | Graphics & Text | Print | Product List | Glossary On
Versions: 1 2 3 4 5 6 7 8 9 10 11 12 13 14 15 16 17 18 19 20 21 22 23 24 25 26 27 28 29 30 31 32 33 34 35 36 37 38 39 40 41 42 43 44 45 46 47 48 49 50
000
ASUS43 KLMK 211410
RWRKY
KENTUCKY REGIONAL WEATHER ROUNDUP
NATIONAL WEATHER SERVICE LOUISVILLE KY
1000 AM EDT SAT OCT 21 2017

NOTE "FAIR" INDICATES FEW OR NO CLOUDS BELOW 12,000 FEET
WITH NO SIGNIFICANT WEATHER AND/OR OBSTRUCTIONS TO VISIBILITY.

KYZ001>023-026-027-061>063-070>075-211500-
WESTERN AND SOUTH CENTRAL KENTUCKY

CITY           SKY/WX    TMP DP  RH WIND       PRES   REMARKS
PADUCAH        PTSUNNY   65  48  54 S9        30.15R
HENDERSON      CLOUDY    58  50  75 SE5       30.19R
OWENSBORO      CLOUDY    58  51  78 SE6       30.21R
HOPKINSVILLE   SUNNY     56  48  74 SE6       30.21R
BOWLING GREEN  CLOUDY    54  52  93 CALM      30.25R
GLASGOW        MOSUNNY   61  50  68 CALM      30.26R
$$

KYZ024-025-028>034-038-045-046-053-211500-
NORTH CENTRAL KENTUCKY

CITY           SKY/WX    TMP DP  RH WIND       PRES   REMARKS
LOUISVILLE/SDF PTSUNNY   60  52  74 SE6       30.24R
LOUISVILLE/LOU CLOUDY    59  54  83 S6        30.25R
FORT KNOX      MOSUNNY   57  51  82 CALM      30.23S
$$

KYZ035>037-039>044-047>052-055>060-089>105-211500-
NORTHEAST KENTUCKY

CITY           SKY/WX    TMP DP  RH WIND       PRES   REMARKS
LEXINGTON      CLOUDY    62  52  69 S7        30.28R
COVINGTON      MOSUNNY   61  54  77 S8        30.25R
FRANKFORT      CLOUDY    60  53  77 S3        30.25S
$$

KYZ054-064>069-076>088-106>120-211500-
SOUTHEAST KENTUCKY

CITY           SKY/WX    TMP DP  RH WIND       PRES   REMARKS
JACKSON        CLOUDY    58  51  78 CALM      30.30R
LONDON         MOSUNNY   54  50  86 CALM      30.31R
SOMERSET       CLOUDY    52  52 100 CALM      30.32R
MIDDLESBORO    FOG       46  46 100 CALM      30.35R VSB 1/2
MONTICELLO     CLOUDY    58  54  86 N9        30.31R
$$





USA.gov is the U.S. government's official web portal to all federal, state and local government web resources and services.